Location: Sternwarte ZA, Rosenfeld-Brittheim
(48.2889°N, 8.6789°E)
Time: 22:00:06
(UTC+01:00)

ISS - Pass Details

Date: 04 March 2021
Orbit: 417 x 422 km, 51.6° (Epoch: 02 March)

Event Time Altitude Azimuth Distance (km) Brightness Sun altitude
Exits shadow 05:42:44 21° 301° (WNW) 994 -2.3 -13.8°
Maximum altitude 05:44:41 49° 8° (N) 550 -3.1 -13.4°
Drops below altitude 10° 05:47:57 10° 85° (E) 1,498 0.6 -12.9°
Sets 05:50:06 0° 91° (E) 2,361 2.1 -12.5°
